CZ-6A DEB, 56612

Orbit data source: Space-Track

CZ-6A DEB, 56612 is space debris in SSO originally from a launch on Fri, 11 Nov 2022 UTC launched from the Taiyaun Space Center, China (TSC). Debris objects in space refer to the collection of defunct objects orbiting the Earth. Examples of debris include non-operational satellites, rocket bodies, and fragments generated from explosions, collisions, or faulty payload assembly.

Loading next visibility...
Identifier
56612, 2022-151AEL
Orbit
SSO
Country
Flag of CNCN / PRC
Related business
Manufacturer
SAST
Mission
Spacecraft
Bus & Motor
Unknown
Mass
Unknown
Launch date (UTC)
2022-11-11 (4 years ago)
Launch vehicle
Unknown
Launch site
Taiyaun Space Center, China (TSC)
Object type
Payload
Rocket body
Debris
Shape & HBR
Unknown shape, 0.1 m
Radar Cross Section
Small (<0.1 m²)

Expand to show TLE details & history
Last TLE update: 2 days ago

TLE from 2 days ago
0 CZ-6A DEB
1 56612U 22151AEL 26207.46697500  .00000908  00000-0  48904-3 0  9990
2 56612  98.8234 212.8231 0034959 189.0883 170.9661 14.14990906167818
Epoch: 2026-07-26T11:12Z
TLE epoch observation values (Epoch: 2026-07-26T11:12:26.640Z)
Latitude
-0.00006°
Longitude
100.54762°
Altitude
870.183 km
Speed
7.404 km/s
True Right ascension
14h 11m 17s
True Declination
0° 00' 00"
Sunlit
Object was in daylight at epoch
Visualization orbit readout
Latitude
Unknown
Longitude
Unknown
Altitude
Unknown
Speed
Unknown
Apparent Right ascension
Unknown
Apparent Declination
Unknown
Sunlit
N/A
Visualization observer readout
Local Sidereal Time
14:25:47
Azimuth
Unknown
Elevation
Unknown
Doppler factor
Unknown
Orbital elements
Apogee altitude
864.746 km
Perigee altitude
814.282 km
Semi-major axis
7,217.651 km
Eccentricity
0.0035
Inclination
98.8234°
RAAN
212.8231°
Arg. of periapsis
189.0883°
True anomaly
171.02873°
Mean anomaly
170.9661°
Eccentric anomaly
170.99744°
Mean motion
3.53956 °/min
Orbital period
101.71 mins
BSTAR
0.00048904
Loading maneuver chart data...
Computing Atmospheric mass density...

Documentation

Showing up to 5 results
|